CW7841 Weather Reports


Display with metric or nautical units.
time (UTC)temp
F
wind
direction
speed
MPH
gust
MPH
rain 1hr
in
rain 24hr
in
rain mn
in
humidity
%
barometer
mb
20181217031006 61 306 0.0 3.0 0.00 0.00 0.00 88 1020.4
20181217025006 62 7 0.0 0.0 0.00 0.00 0.00 87 1020.6
20181217024006 62 7 0.0 0.0 0.00 0.00 0.00 87 1020.6
20181217023506 62 7 0.0 0.0 0.00 0.00 0.00 86 1020.7
20181217023006 62 7 0.0 0.0 0.00 0.00 0.00 87 1020.4
20181217022006 63 7 0.0 0.0 0.00 0.00 0.00 87 1020.4
20181217021506 63 7 0.0 0.0 0.00 0.00 0.00 87 1020.3
20181217020506 63 7 0.0 0.0 0.00 0.00 0.00 87 1020.2
20181217013506 64 7 0.0 0.0 0.00 0.00 0.00 87 1020.2
20181217013006 64 7 0.0 0.0 0.00 0.00 0.00 87 1020.4
20181217011506 64 7 0.0 0.0 0.00 0.00 0.00 86 1020.0
20181217010506 65 7 0.0 0.0 0.00 0.00 0.00 87 1020.0
20181217010006 65 7 0.0 0.0 0.00 0.00 0.00 87 1019.9
20181217005506 65 7 0.0 0.0 0.00 0.00 0.00 88 1019.7
20181217005006 65 7 0.0 0.0 0.00 0.00 0.00 87 1019.6
20181217004006 65 7 0.0 0.0 0.00 0.00 0.00 86 1019.7
20181217003506 65 7 0.0 0.0 0.00 0.00 0.00 86 1019.5
20181217003006 65 7 0.0 0.0 0.00 0.00 0.00 86 1019.7
20181217002006 65 7 0.0 0.0 0.00 0.00 0.00 88 1019.7
20181217001006 65 7 0.0 0.0 0.00 0.00 0.00 89 1019.7
20181216235006 66 7 0.0 0.0 0.00 0.00 0.00 86 1019.5
20181216234506 66 7 0.0 0.0 0.00 0.00 0.00 87 1019.4
20181216234007 66 7 0.0 0.0 0.00 0.00 0.00 86 1019.4
20181216232006 66 7 0.0 0.0 0.00 0.00 0.00 86 1019.1
20181216231506 66 7 0.0 0.0 0.00 0.00 0.00 85 1019.1
20181216231006 66 7 0.0 0.0 0.00 0.00 0.00 85 1019.0
20181216230506 67 7 0.0 0.0 0.00 0.00 0.00 85 1019.1
20181216225007 67 7 0.0 0.0 0.00 0.00 0.00 86 1018.7
20181216223006 67 7 0.0 0.0 0.00 0.00 0.00 86 1018.8
20181216222506 67 7 0.0 0.0 0.00 0.00 0.00 85 1018.7
20181216221506 67 7 0.0 0.0 0.00 0.00 0.00 86 1018.6
20181216220506 67 7 0.0 0.0 0.00 0.00 0.00 87 1018.4
20181216215507 68 9 0.0 6.0 0.00 0.00 0.00 85 1018.4
20181216215006 68 8 0.0 6.0 0.00 0.00 0.00 85 1018.3
20181216214507 68 5 0.0 6.0 0.00 0.00 0.00 84 1018.2
20181216214007 68 358 0.0 6.0 0.00 0.00 0.00 85 1018.3
20181216213507 68 6 1.0 6.0 0.00 0.00 0.00 84 1018.3
20181216213006 68 13 0.0 6.0 0.00 0.00 0.00 84 1018.4
20181216211506 68 311 0.0 6.0 0.00 0.00 0.00 85 1018.2
20181216211007 68 323 0.0 6.0 0.00 0.00 0.00 83 1018.1
20181216205507 69 2 0.0 8.0 0.00 0.00 0.00 83 1017.8
20181216205007 69 8 0.0 8.0 0.00 0.00 0.00 82 1017.8
20181216204507 69 3 0.0 8.0 0.00 0.00 0.00 83 1017.7
20181216204007 69 0 0.0 8.0 0.00 0.00 0.00 83 1017.8
20181216203507 69 35 0.0 8.0 0.00 0.00 0.00 83 1017.6
20181216202007 69 26 0.0 6.0 0.00 0.00 0.00 83 1017.8
20181216201507 69 357 0.0 6.0 0.00 0.00 0.00 83 1017.7
20181216201007 68 25 0.0 6.0 0.00 0.00 0.00 87 1017.6
20181216200507 69 38 0.0 5.0 0.00 0.00 0.00 84 1017.7
20181216194507 69 25 0.0 8.0 0.00 0.00 0.00 83 1017.6
20181216194007 69 15 0.0 8.0 0.00 0.00 0.00 83 1017.7
20181216193507 69 28 0.0 8.0 0.00 0.00 0.00 83 1017.8
20181216193007 69 17 0.0 8.0 0.00 0.00 0.00 84 1017.6
20181216192507 69 20 0.0 8.0 0.00 0.00 0.00 83 1017.8
20181216191507 69 38 1.0 8.0 0.00 0.00 0.00 82 1017.7
20181216191008 70 19 0.0 8.0 0.00 0.00 0.00 81 1017.9
20181216190507 70 36 1.0 8.0 0.00 0.00 0.00 83 1017.9
20181216184507 71 0 3.0 10.0 0.00 0.01 0.00 82 1017.9
20181216184007 71 27 0.0 10.0 0.00 0.01 0.00 81 1018.0
20181216183507 71 17 3.0 10.0 0.00 0.01 0.00 81 1017.7
20181216183007 72 341 0.0 10.0 0.00 0.01 0.00 81 1017.9
20181216181007 73 33 3.0 6.0 0.00 0.01 0.00 77 1018.3
20181216175507 75 11 0.0 9.0 0.00 0.01 0.00 74 1018.4
20181216175007 76 4 0.0 9.0 0.00 0.01 0.00 72 1018.7
20181216174507 76 274 0.0 9.0 0.00 0.01 0.00 68 1018.6
20181216174007 75 219 3.0 9.0 0.00 0.01 0.00 67 1018.6
20181216173007 75 306 0.0 8.0 0.00 0.01 0.00 70 1019.0
20181216171507 74 273 0.0 4.0 0.00 0.01 0.00 72 1019.0
20181216171007 74 273 0.0 4.0 0.00 0.01 0.00 73 1019.3
20181216170007 74 305 0.0 8.0 0.00 0.01 0.00 73 1019.2
20181216164007 74 312 8.0 8.0 0.00 0.01 0.00 74 1019.7
20181216163507 74 290 3.0 6.0 0.00 0.01 0.00 76 1019.9
20181216162507 73 316 0.0 6.0 0.00 0.01 0.00 76 1020.0
20181216161007 72 262 0.0 3.0 0.00 0.01 0.00 79 1020.3
20181216160507 72 294 3.0 3.0 0.00 0.01 0.00 79 1020.4
20181216160007 72 279 0.0 7.0 0.00 0.01 0.00 82 1020.7
20181216155008 71 294 0.0 5.0 0.00 0.01 0.00 82 1020.6
20181216154008 70 293 0.0 5.0 0.00 0.01 0.00 85 1020.9
20181216153008 69 265 0.0 0.0 0.00 0.01 0.00 88 1021.0
20181216151508 68 286 0.0 0.0 0.00 0.01 0.00 91 1021.0
20181216150507 68 266 0.0 0.0 0.00 0.01 0.00 93 1021.1
20181216150008 67 271 0.0 0.0 0.00 0.01 0.00 93 1021.0
20181216145008 67 316 0.0 0.0 0.00 0.01 0.00 94 1020.8
20181216144507 67 316 0.0 0.0 0.00 0.01 0.00 95 1020.8
20181216144008 66 237 0.0 0.0 0.00 0.01 0.00 95 1021.1
20181216143508 66 237 0.0 0.0 0.00 0.01 0.00 95 1021.2
20181216143008 66 237 0.0 0.0 0.00 0.01 0.00 96 1021.2
20181216142507 66 237 0.0 0.0 0.00 0.01 0.00 96 1021.2
20181216142007 65 237 0.0 0.0 0.00 0.01 0.00 95 1021.0
20181216141508 65 237 0.0 0.0 0.00 0.01 0.00 95 1021.1
20181216141007 65 238 0.0 0.0 0.00 0.01 0.00 96 1021.3
20181216140008 64 232 0.0 0.0 0.00 0.01 0.00 96 1021.1
20181216134508 63 237 0.0 0.0 0.00 0.01 0.00 95 1021.2
20181216134007 62 231 0.0 0.0 0.00 0.01 0.00 95 1020.8
20181216133008 62 235 0.0 0.0 0.00 0.01 0.00 94 1021.2
20181216132508 61 235 0.0 0.0 0.00 0.01 0.00 94 1021.2
20181216132008 61 237 0.0 0.0 0.00 0.01 0.00 94 1020.8
20181216125508 60 235 0.0 0.0 0.00 0.03 0.00 92 1020.9
20181216125008 60 235 0.0 0.0 0.00 0.03 0.00 92 1020.8
20181216124508 60 235 0.0 0.0 0.00 0.03 0.00 92 1020.7
20181216124008 60 235 0.0 0.0 0.00 0.03 0.00 91 1020.7
20181216123008 60 236 0.0 0.0 0.00 0.03 0.00 91 1020.3
20181216120508 60 237 0.0 0.0 0.00 0.03 0.00 92 1020.1
20181216115508 60 237 0.0 0.0 0.00 0.04 0.00 91 1019.7
20181216114008 60 237 0.0 0.0 0.00 0.04 0.00 91 1019.5
20181216113008 61 237 0.0 0.0 0.00 0.04 0.00 91 1019.8
20181216112008 61 237 0.0 0.0 0.00 0.04 0.00 91 1019.7
20181216111508 61 237 0.0 0.0 0.00 0.04 0.00 91 1019.3
20181216111008 61 237 0.0 0.0 0.00 0.04 0.00 91 1019.4
20181216110508 61 237 0.0 0.0 0.00 0.04 0.00 91 1019.2
20181216110008 61 235 0.0 0.0 0.00 0.21 0.00 91 1019.3
20181216105508 61 231 0.0 0.0 0.00 0.21 0.00 92 1019.1
20181216105008 61 233 0.0 0.0 0.00 0.21 0.00 91 1019.1
20181216103508 61 230 0.0 0.0 0.00 0.21 0.00 92 1019.0
20181216103008 61 231 0.0 0.0 0.00 0.21 0.00 92 1019.1
20181216102508 61 232 0.0 0.0 0.00 0.21 0.00 91 1019.1
20181216102008 61 230 0.0 0.0 0.00 0.21 0.00 91 1019.3
20181216101508 61 228 0.0 0.0 0.00 0.21 0.00 92 1019.0
20181216100508 61 215 0.0 0.0 0.00 0.21 0.00 93 1019.1
20181216100008 61 227 0.0 0.0 0.00 0.31 0.00 91 1018.8
20181216095508 61 234 0.0 0.0 0.00 0.31 0.00 91 1019.1
20181216094508 62 236 0.0 0.0 0.00 0.31 0.00 90 1019.0
20181216092008 62 237 0.0 0.0 0.00 0.31 0.00 90 1018.6
20181216091508 62 237 0.0 0.0 0.00 0.31 0.00 91 1018.6
20181216091008 62 236 0.0 0.0 0.00 0.31 0.00 91 1018.6
20181216090508 62 235 0.0 0.0 0.00 0.31 0.00 91 1018.6
20181216085508 62 235 0.0 0.0 0.00 0.31 0.00 90 1018.6
20181216085008 62 234 0.0 0.0 0.00 0.31 0.00 91 1018.7
20181216084508 62 233 0.0 0.0 0.00 0.31 0.00 91 1018.5
20181216084008 63 233 0.0 0.0 0.00 0.31 0.00 91 1018.7
20181216083508 63 234 0.0 0.0 0.00 0.31 0.00 91 1018.7
20181216081008 63 229 0.0 0.0 0.00 0.31 0.00 91 1018.6
20181216080508 63 231 0.0 0.0 0.00 0.31 0.00 91 1018.5
20181216075509 64 236 0.0 0.0 0.00 0.31 0.00 90 1018.7
20181216075008 64 237 0.0 0.0 0.00 0.31 0.00 90 1018.8
20181216074009 64 237 0.0 0.0 0.00 0.31 0.00 90 1018.8
20181216073509 64 237 0.0 0.0 0.00 0.31 0.00 90 1019.0
20181216072508 64 235 0.0 0.0 0.00 0.31 0.00 91 1018.7
20181216072009 64 236 0.0 0.0 0.00 0.31 0.00 90 1018.9
20181216065508 65 236 0.0 0.0 0.00 0.31 0.00 90 1018.8
20181216065008 65 236 0.0 0.0 0.00 0.31 0.00 91 1018.6
20181216064508 65 236 0.0 0.0 0.00 0.31 0.00 91 1018.6
20181216063509 65 236 0.0 0.0 0.00 0.31 0.00 91 1018.5
20181216063009 65 234 0.0 0.0 0.00 0.31 0.00 91 1018.8
20181216062508 65 235 0.0 0.0 0.00 0.31 0.00 91 1018.6
20181216062009 66 234 0.0 0.0 0.00 0.31 0.00 91 1018.7
20181216061509 66 232 0.0 0.0 0.00 0.31 0.00 92 1018.9
20181216054510 66 238 0.0 0.0 0.00 0.31 0.00 90 1018.9
20181216054009 66 237 0.0 0.0 0.00 0.31 0.00 90 1019.0
20181216053509 66 237 0.0 0.0 0.00 0.31 0.00 91 1019.2
20181216053009 66 235 0.0 0.0 0.00 0.31 0.00 91 1019.3
20181216052009 67 237 0.0 0.0 0.00 0.31 0.00 90 1019.1
20181216051509 67 237 0.0 0.0 0.00 0.31 0.00 90 1019.1
20181216045009 67 237 0.0 0.0 0.00 0.31 0.31 91 1019.1
20181216043509 67 236 0.0 0.0 0.00 0.31 0.31 91 1019.3
20181216042009 68 236 0.0 0.0 0.00 0.31 0.31 91 1019.4
20181216041509 68 236 0.0 0.0 0.00 0.31 0.31 91 1019.4
20181216035509 68 236 0.0 0.0 0.00 0.31 0.31 91 1019.5
20181216035009 68 236 0.0 0.0 0.00 0.31 0.31 91 1019.7
20181216034009 68 235 0.0 0.0 0.00 0.31 0.31 91 1019.4
20181216033509 68 237 0.0 0.0 0.00 0.31 0.31 90 1019.7
20181216033009 68 238 0.0 0.0 0.00 0.31 0.31 90 1019.7
20181216032509 68 238 0.0 0.0 0.00 0.31 0.31 90 1019.7
20181216032009 68 238 0.0 0.0 0.00 0.31 0.31 90 1019.5
20181216031509 68 238 0.0 0.0 0.00 0.31 0.31 90 1019.9